{"data":{"norad_id":48438,"intl_designator":"2021-040L","name":"STARLINK-2640","alt_names":[],"object_type":"PAYLOAD","status":"ACTIVE","operator":null,"country":"US","launch_date":"2021-05-09","launch_site_code":"AFETR","launch_vehicle":null,"mission":null,"orbit_class":"UNKNOWN","rcs_meters":null,"size_class":null,"mass_kg":null,"dimensions":null,"purposes":["comms"],"wikipedia_slug":null,"has_3d_model":false,"image_url":null,"decayed_at":null,"tle_current":{"epoch":"2026-05-24T12:37:01.588512Z","epoch_age_seconds":122868,"freshness":"FRESH","line1":"1 48438U 21040L   26144.52571283  .00005972  00000+0  20400-3 0  9995","line2":"2 48438  53.1576 185.4982 0001118  85.2810 274.8319 15.31709090278295","mean_motion":15.3170909,"eccentricity":0.0001118,"inclination_deg":53.1576,"raan_deg":185.4982,"arg_perigee_deg":85.281,"mean_anomaly_deg":274.8319,"bstar":0.000204,"rev_number":27829,"period_min":94.012630035381,"perigee_km":469.947197124,"apogee_km":471.47859996132,"semimajor_km":6848.8498985427,"source":"CELESTRAK","updated_at":"2026-05-25T13:38:16.715517Z"}}}